SCP
0 0 0 0 0 0 0 0 0 0 0 0 0 0 0 0 0 0 0 0 0 0 0 0 0 0 0 0 0 0 0 0 0 0 0 0 0 0 0 0 0 0 0
0 0 0 0 0 0 0 0 0 0 0 0 0 0 0 0 0 0 0 0 0 0 0 0 0 0 0 0 0 0 0 0 0 0 0 0 0 0 0 0 0 0 0
0 0 0 0 0 0 0 0 0 0 0 0 0 0 0 0 0 0 0 0 0 0 0 0 0 0 0 0 0 0 0 0 0 0 0 0 0 0 0 0 0 0 0
0 0 0 0 0 0 0 0 0 0 0 0 0 0 0 0 0 0 0 0 0 0 0 0 0 0 0 0 0 0 0 0 0 0 0 0 0 0 0 0 0 0 0
0 0 0 0 0 0 0 0 0 0 0 0 0 0 0 0 0 0 0 0 0 0 0 0 0 0 0 0 0 0 0 0 0 0 0 0 0 0 0 0 0 0 0
0 0 0 0 0 0 0 0 0 0 0 0 -0 0 0 0 0 0 0 0 0 0 0 0 0 0 0 0 0 0 0 0 0 0 0 0 0 0 0 0 0 0 0
0 0 0 0 0 0 0 0 0 0 0 0 -0 0 0 0 0 0 0 0 0 0 0 0 0 0 0 0 0 0 0 0 0 0 0 0 0 0 0 0 0 0 0
0 0 0 0 0 0 0 0 0 0 0 0 0 -0 -0 0 0 0 0 0 0 0 0 0 0 0 0 0 0 0 0 0 0 0 0 0 0 0 0 0 0 0 0
0 0 0 0 0 0 0 -0 0 0 0 0 0 0 0 0 0 0 0 0 0 0 0 0 0 0 0 0 0 0 0 0 0 0 0 0 0 0 0 0 0 0 0
0 0 0 0 0 0 0 0 0 0 0 0 0 0 0 0 0 0 0 0 0 0 0 0 0 0 0 0 0 0 0 0 0 0 0 0 0 0 0 0 0 0 0
0 0 0 0 0 0 -0 0 0 0 0 0 0 0 0 0 0 0 -0 0 0 0 0 0 0 0 0 0 0 0 0 0 0 0 0 0 0 0 0 0 0 0 0
0 0 0 0 0 0 0 0 0 -0 0 0 0 0 0 0 -0 -0 0 0 0 0 0 0 0 0 0 0 0 0 0 0 0 0 0 0 0 0 0 0 0 0 0
0 0 0 0 0 0 0 0 0 0 0 0 0 0 0 0 0 0 -0 0 0 0 0 0 0 0 0 0 0 0 0 0 0 0 0 0 0 0 0 0 0 0 0
0 0 0 0 0 0 0 0 0 0 0 0 0 0 0 0 0 0 0 0 0 0 0 0 0 0 0 0 0 0 0 0 0 0 0 0 0 0 0 0 0 0 0
0 0 0 0 0 0 0 0 0 0 0 0 0 0 0 0 0 0 0 0 0 0 0 0 0 0 0 0 0 0 0 0 0 0 0 0 0 0 0 0 0 0 0
-0 -0 0 0 0 0 0 0 0 0 0 0 0 0 0 -0 0 -0 -0 -0 -0 0 0 0 0 0 0 0 0 0 0 0 0 0 0 0 0 0 0 0 0 0 0
-0 -0 -0 -0 0 0 0 0 0 0 0 0 0 0 -0 -0 -0 -0 -0 -0 -0 -0 -0 -0 0 0 0 0 0 0 0 0 0 0 0 0 0 0 0 0 0 0 0
0 0 0 0 0 0 0 0 0 0 -0 0 0 -0 0 -0 -0 -0 -0 -0 -0 -0 -0 0 0 0 0 0 0 0 0 0 0 0 0 0 0 0 0 0 0 0 0
0 0 0 0 0 0 0 0 0 0 0 0 0 0 -0 -0 -0 -0 -0 -0 -0 0 0 0 0 0 0 0 0 0 0 0 0 0 0 0 0 0 0 0 0 0 0
0 0 0 0 0 0 0 0 0 0 0 0 0 0 0 0 -0 -0 0 0 0 0 0 0 0 0 0 0 0 0 0 0 0 0 0 0 0 0 0 0 0 0 0
0 0 0 0 0 0 0 0 0 0 0 0 0 0 0 0 0 0 0 0 0 0 0 0 0 0 0 0 0 0 0 0 0 0 0 0 0 0 0 0 0 0 0
0 0 0 0 0 0 0 0 0 0 0 0 0 0 -0 0 0 0 -0 0 0 0 0 0 0 0 0 0 0 0 0 0 0 0 0 0 0 0 0 0 0 0 0
0 -0 -0 0 0 0 0 0 0 0 0 0 0 0 0 0 0 0 0 0 0 0 0 0 0 0 0 0 0 0 0 0 0 0 0 0 0 0 0 0 0 0 0
0 -0 -0 -0 0 0 0 0 0 0 0 0 0 0 0 0 0 0 0 0 0 0 0 0 0 0 0 0 0 0 0 0 0 0 0 0 0 0 0 0 0 0 0
0 0 -0 -0 0 0 0 0 0 0 0 0 0 0 0 0 0 0 0 0 0 0 0 0 0 0 0 0 0 0 0 0 0 0 0 0 0 0 0 0 0 0 0
0 0 0 0 0 0 0 0 0 0 0 0 0 0 0 0 0 0 0 0 0 0 0 0 0 0 0 0 0 0 0 0 0 0 0 0 0 0 0 0 0 0 0
Wind_Speed_500mb
77 76 73 72 75 76 78 81 86 86 80 78 79 74 73 78 78 84 87 92 85 92 110 126 132 144 139 131 128 109 109 90 71 56 62 58 48 68 78 69 68 60 56
72 73 73 68 68 68 72 79 80 80 80 81 83 73 68 73 83 86 89 97 86 96 105 108 112 134 140 120 116 109 91 90 74 61 52 53 57 58 68 73 68 59 55
69 68 66 64 65 66 67 69 71 74 81 73 76 75 77 73 83 83 86 92 85 87 105 106 117 125 124 114 108 110 93 86 72 61 57 59 59 58 72 74 62 59 56
66 68 67 61 58 58 57 61 64 66 68 66 71 71 68 67 81 74 89 90 87 82 83 101 90 90 119 124 115 112 95 83 63 57 54 57 64 66 70 72 67 56 59
64 62 60 55 53 53 54 52 51 54 60 64 62 70 69 69 78 67 92 86 82 84 83 101 83 47 88 107 103 89 87 76 63 58 56 60 69 70 65 62 56 61 59
61 58 54 50 47 47 49 46 45 46 49 54 59 61 62 69 79 64 65 74 71 73 89 87 80 67 76 92 109 92 90 82 67 66 67 67 65 55 56 58 66 61 55
57 56 52 47 46 47 41 15 25 33 39 48 55 58 52 58 77 63 71 68 60 67 84 75 73 72 73 80 91 91 79 74 57 65 64 61 53 54 56 57 53 50 53
55 50 46 43 39 37 31 12 6 20 31 40 43 45 54 62 65 58 60 60 62 64 69 68 70 63 73 80 76 73 66 62 54 50 44 38 43 46 42 38 37 40 44
54 51 46 36 33 31 25 14 10 17 24 25 26 35 53 58 57 61 64 62 65 69 62 65 59 66 61 68 80 76 70 60 46 44 50 48 43 43 40 39 40 42 44
52 48 40 33 31 28 25 17 13 14 17 25 31 27 39 51 53 50 54 65 64 59 53 50 46 52 57 70 70 68 57 48 58 60 48 45 40 36 34 35 37 40 42
45 43 38 32 30 25 21 18 13 15 24 25 28 36 48 53 53 44 45 52 53 46 44 51 53 65 73 63 46 42 41 53 45 39 37 35 33 32 34 35 37 39 42
39 37 36 35 32 24 21 25 22 22 29 35 38 42 39 36 35 34 31 26 38 56 69 77 78 72 57 46 43 48 43 38 36 35 33 29 30 31 32 35 36 39 43
39 40 37 34 32 28 33 34 41 41 50 52 54 53 45 38 31 23 26 39 55 74 80 72 62 54 54 54 44 37 34 33 32 29 27 26 27 29 31 34 39 45 49
44 42 39 40 37 36 35 36 42 49 54 56 54 54 51 46 42 42 59 69 73 72 67 65 63 58 48 39 36 36 32 28 24 22 22 24 27 28 32 37 43 45 47
53 51 48 45 46 44 45 45 46 46 52 59 57 57 59 61 57 60 64 68 69 67 66 59 53 47 45 39 32 25 21 18 17 20 22 25 28 32 32 32 34 35 40
62 61 58 57 59 62 62 64 61 60 60 63 66 68 69 66 62 60 58 55 52 48 48 46 43 36 30 25 20 18 19 18 18 22 25 27 28 30 32 34 36 36 39
44 47 50 53 57 62 66 68 69 61 57 54 52 52 53 54 50 49 49 48 42 37 36 35 30 25 21 20 20 17 14 14 17 20 23 26 29 30 32 34 35 36 37
24 28 30 35 37 41 43 45 50 53 55 54 46 44 45 44 42 39 37 36 39 34 30 29 27 23 19 14 11 9 9 12 16 19 20 22 23 25 28 30 33 35 37
17 21 23 27 30 32 35 38 39 42 45 46 43 40 37 35 36 35 31 25 30 29 24 20 17 14 9 4 2 4 5 7 10 13 16 18 20 21 23 26 30 34 37
13 15 19 20 22 24 25 26 29 31 34 33 32 32 28 22 22 21 20 17 17 18 17 13 10 7 4 2 2 4 7 9 11 14 16 20 23 25 27 29 31 33 35
15 13 12 13 13 15 15 15 17 18 19 21 22 22 19 11 13 14 15 14 14 13 12 12 11 10 8 6 5 6 9 12 15 18 20 22 24 27 29 31 33 35 37
20 20 18 16 15 14 14 13 13 13 14 13 15 17 16 15 15 16 16 16 16 16 15 13 12 10 10 11 11 12 14 16 18 19 22 24 25 27 28 30 32 35 39
23 23 23 20 19 18 17 16 15 15 15 16 17 18 19 18 18 19 19 19 19 18 16 15 14 13 13 13 13 14 16 18 19 21 23 24 25 28 31 34 38 40 40
33 29 25 23 21 20 19 18 19 19 19 20 21 22 23 22 22 22 21 20 18 17 16 14 13 13 14 15 17 18 20 21 22 24 25 25 27 31 33 36 39 40 41
32 31 28 25 24 24 24 24 24 25 25 24 25 25 24 22 21 19 19 19 17 15 15 15 15 16 17 18 20 22 23 24 24 22 24 27 31 31 36 38 38 39 39
37 34 32 31 30 28 26 27 29 29 28 28 26 24 22 21 20 20 19 17 15 15 14 13 14 15 16 17 18 17 19 20 22 23 24 30 30 34 42 40 39 38 44
Wind_Direction_500mb
297 296 294 290 284 279 270 266 263 261 257 253 250 242 235 232 221 222 225 225 229 225 227 216 217 226 228 221 222 219 219 223 222 217 219 220 221 221 219 223 223 227 230
305 296 294 293 290 282 274 269 263 259 256 249 247 242 236 230 218 220 220 223 225 224 223 221 225 228 227 225 219 221 217 224 221 215 213 213 213 213 220 221 220 226 228
313 305 302 298 292 287 280 274 266 256 251 249 245 239 234 228 216 218 221 221 224 225 224 225 220 223 223 227 231 223 214 216 220 222 218 214 208 208 207 213 220 224 234
322 316 308 307 302 296 287 277 269 261 250 241 236 232 225 225 212 220 217 217 220 223 226 217 227 233 232 231 225 214 212 215 225 221 212 209 207 205 201 210 219 225 224
326 322 319 315 310 302 293 282 271 259 244 235 227 226 224 219 213 216 213 210 214 219 225 226 227 245 241 230 223 216 217 216 217 208 207 206 206 202 211 219 215 221 230
334 332 330 327 323 319 308 286 269 255 233 226 220 223 220 212 211 213 207 207 212 224 222 219 225 231 234 238 224 215 224 211 202 206 206 205 203 218 219 200 214 219 228
343 345 343 343 341 331 333 279 233 229 214 212 213 218 211 203 204 208 206 207 211 222 221 224 225 228 233 226 216 211 204 206 220 214 203 208 220 209 192 208 217 223 233
354 355 357 358 347 348 359 24 190 195 194 199 206 212 209 196 204 202 196 203 215 223 223 218 221 231 223 221 204 193 187 183 187 199 218 221 196 197 210 216 225 231 236
1 2 2 3 8 13 26 58 114 152 171 182 187 207 193 192 195 200 204 214 219 216 209 216 223 215 204 194 185 180 178 183 193 186 178 186 199 207 212 219 225 232 238
5 6 10 16 28 31 31 48 103 134 164 171 171 185 196 191 190 195 198 207 201 202 206 209 209 198 180 179 179 180 184 183 175 173 179 197 205 214 222 229 234 238 245
12 16 25 34 42 48 50 56 101 133 160 160 166 160 170 180 185 197 203 202 199 189 189 190 174 170 166 167 175 185 181 168 165 182 192 202 212 224 232 238 243 248 254
26 33 36 41 52 61 70 90 109 126 140 139 141 138 146 150 153 163 176 192 194 178 170 158 152 160 161 159 158 154 157 169 181 191 202 213 226 234 243 250 256 262 265
37 44 48 56 66 73 91 103 114 126 127 127 126 123 121 121 126 138 160 177 164 151 147 146 147 148 146 145 148 158 169 181 194 203 214 227 239 247 257 264 267 271 274
53 54 61 66 71 81 91 104 112 120 123 123 119 117 118 117 116 137 145 141 139 138 139 138 139 137 137 143 159 172 181 191 204 220 232 243 252 262 268 272 273 276 278
60 67 72 76 81 83 86 95 103 108 114 117 117 116 115 118 124 125 127 130 131 130 131 131 135 147 154 159 166 178 189 200 217 233 247 260 269 273 275 277 284 287 286
69 71 76 83 87 90 92 94 93 97 96 98 103 106 108 107 112 113 117 121 124 129 134 135 139 144 148 153 167 190 204 221 241 255 261 267 274 281 284 282 281 283 286
78 81 84 88 95 101 103 104 106 106 106 104 106 108 109 112 116 119 121 122 121 127 130 130 132 139 153 170 189 205 222 242 257 266 274 280 281 283 287 289 290 290 291
90 92 96 98 101 104 105 108 114 118 116 113 111 110 110 112 114 117 121 129 129 133 135 137 143 153 162 173 196 224 253 266 270 271 276 286 294 298 299 299 299 301 303
114 109 105 106 111 111 110 111 114 116 116 118 121 120 119 121 124 126 127 132 125 126 127 132 138 146 152 157 283 291 288 293 302 310 313 310 307 306 309 313 314 314 316
150 138 128 125 122 121 120 122 122 121 119 119 121 119 122 125 127 122 120 112 111 112 114 114 111 106 102 95 38 1 347 338 333 329 329 331 330 327 323 322 323 325 326
180 173 165 153 145 139 136 138 136 135 133 134 135 129 123 125 112 110 111 112 110 109 108 108 103 94 83 69 45 23 5 358 352 343 337 331 329 329 331 333 335 336 335
202 203 200 194 187 183 180 175 169 163 159 153 149 148 143 138 131 127 125 121 115 110 107 102 101 93 74 54 32 15 4 355 346 337 333 334 338 340 339 339 339 339 338
211 214 206 204 204 200 196 189 183 174 163 150 145 147 144 144 136 128 122 117 114 109 102 90 74 60 45 27 14 5 358 349 342 337 337 337 336 335 335 337 337 336 336
217 208 205 202 202 199 195 190 179 168 163 161 154 149 143 138 132 124 119 113 107 99 92 82 63 45 30 17 7 357 348 342 338 332 326 324 328 335 338 341 337 332 330
206 202 200 198 198 196 191 184 176 171 167 160 151 145 139 133 127 124 120 112 104 91 73 54 37 23 11 2 353 346 341 335 328 324 318 320 329 333 335 334 333 332 332
200 198 195 193 190 187 183 180 176 172 164 156 151 146 141 137 133 127 121 111 91 67 46 29 13 357 347 338 328 321 322 326 324 319 314 325 322 320 330 329 327 329 332
Wind_Speed_850mb
77 76 73 72 75 76 78 81 86 86 80 78 79 74 73 78 78 84 87 92 85 92 110 126 132 144 139 131 128 109 109 90 71 56 62 58 48 68 78 69 68 60 56
72 73 73 68 68 68 72 79 80 80 80 81 83 73 68 73 83 86 89 97 86 96 105 108 112 134 140 120 116 109 91 90 74 61 52 53 57 58 68 73 68 59 55
69 68 66 64 65 66 67 69 71 74 81 73 76 75 77 73 83 83 86 92 85 87 105 106 117 125 124 114 108 110 93 86 72 61 57 59 59 58 72 74 62 59 56
66 68 67 61 58 58 57 61 64 66 68 66 71 71 68 67 81 74 89 90 87 82 83 101 90 90 119 124 115 112 95 83 63 57 54 57 64 66 70 72 67 56 59
64 62 60 55 53 53 54 52 51 54 60 64 62 70 69 69 78 67 92 86 82 84 83 101 83 47 88 107 103 89 87 76 63 58 56 60 69 70 65 62 56 61 59
61 58 54 50 47 47 49 46 45 46 49 54 59 61 62 69 79 64 65 74 71 73 89 87 80 67 76 92 109 92 90 82 67 66 67 67 65 55 56 58 66 61 55
57 56 52 47 46 47 41 15 25 33 39 48 55 58 52 58 77 63 71 68 60 67 84 75 73 72 73 80 91 91 79 74 57 65 64 61 53 54 56 57 53 50 53
55 50 46 43 39 37 31 12 6 20 31 40 43 45 54 62 65 58 60 60 62 64 69 68 70 63 73 80 76 73 66 62 54 50 44 38 43 46 42 38 37 40 44
54 51 46 36 33 31 25 14 10 17 24 25 26 35 53 58 57 61 64 62 65 69 62 65 59 66 61 68 80 76 70 60 46 44 50 48 43 43 40 39 40 42 44
52 48 40 33 31 28 25 17 13 14 17 25 31 27 39 51 53 50 54 65 64 59 53 50 46 52 57 70 70 68 57 48 58 60 48 45 40 36 34 35 37 40 42
45 43 38 32 30 25 21 18 13 15 24 25 28 36 48 53 53 44 45 52 53 46 44 51 53 65 73 63 46 42 41 53 45 39 37 35 33 32 34 35 37 39 42
39 37 36 35 32 24 21 25 22 22 29 35 38 42 39 36 35 34 31 26 38 56 69 77 78 72 57 46 43 48 43 38 36 35 33 29 30 31 32 35 36 39 43
39 40 37 34 32 28 33 34 41 41 50 52 54 53 45 38 31 23 26 39 55 74 80 72 62 54 54 54 44 37 34 33 32 29 27 26 27 29 31 34 39 45 49
44 42 39 40 37 36 35 36 42 49 54 56 54 54 51 46 42 42 59 69 73 72 67 65 63 58 48 39 36 36 32 28 24 22 22 24 27 28 32 37 43 45 47
53 51 48 45 46 44 45 45 46 46 52 59 57 57 59 61 57 60 64 68 69 67 66 59 53 47 45 39 32 25 21 18 17 20 22 25 28 32 32 32 34 35 40
62 61 58 57 59 62 62 64 61 60 60 63 66 68 69 66 62 60 58 55 52 48 48 46 43 36 30 25 20 18 19 18 18 22 25 27 28 30 32 34 36 36 39
44 47 50 53 57 62 66 68 69 61 57 54 52 52 53 54 50 49 49 48 42 37 36 35 30 25 21 20 20 17 14 14 17 20 23 26 29 30 32 34 35 36 37
24 28 30 35 37 41 43 45 50 53 55 54 46 44 45 44 42 39 37 36 39 34 30 29 27 23 19 14 11 9 9 12 16 19 20 22 23 25 28 30 33 35 37
17 21 23 27 30 32 35 38 39 42 45 46 43 40 37 35 36 35 31 25 30 29 24 20 17 14 9 4 2 4 5 7 10 13 16 18 20 21 23 26 30 34 37
13 15 19 20 22 24 25 26 29 31 34 33 32 32 28 22 22 21 20 17 17 18 17 13 10 7 4 2 2 4 7 9 11 14 16 20 23 25 27 29 31 33 35
15 13 12 13 13 15 15 15 17 18 19 21 22 22 19 11 13 14 15 14 14 13 12 12 11 10 8 6 5 6 9 12 15 18 20 22 24 27 29 31 33 35 37
20 20 18 16 15 14 14 13 13 13 14 13 15 17 16 15 15 16 16 16 16 16 15 13 12 10 10 11 11 12 14 16 18 19 22 24 25 27 28 30 32 35 39
23 23 23 20 19 18 17 16 15 15 15 16 17 18 19 18 18 19 19 19 19 18 16 15 14 13 13 13 13 14 16 18 19 21 23 24 25 28 31 34 38 40 40
33 29 25 23 21 20 19 18 19 19 19 20 21 22 23 22 22 22 21 20 18 17 16 14 13 13 14 15 17 18 20 21 22 24 25 25 27 31 33 36 39 40 41
32 31 28 25 24 24 24 24 24 25 25 24 25 25 24 22 21 19 19 19 17 15 15 15 15 16 17 18 20 22 23 24 24 22 24 27 31 31 36 38 38 39 39
37 34 32 31 30 28 26 27 29 29 28 28 26 24 22 21 20 20 19 17 15 15 14 13 14 15 16 17 18 17 19 20 22 23 24 30 30 34 42 40 39 38 44
Wind_Direction_850mb
297 296 294 290 284 279 270 266 263 261 257 253 250 242 235 232 221 222 225 225 229 225 227 216 217 226 228 221 222 219 219 223 222 217 219 220 221 221 219 223 223 227 230
305 296 294 293 290 282 274 269 263 259 256 249 247 242 236 230 218 220 220 223 225 224 223 221 225 228 227 225 219 221 217 224 221 215 213 213 213 213 220 221 220 226 228
313 305 302 298 292 287 280 274 266 256 251 249 245 239 234 228 216 218 221 221 224 225 224 225 220 223 223 227 231 223 214 216 220 222 218 214 208 208 207 213 220 224 234
322 316 308 307 302 296 287 277 269 261 250 241 236 232 225 225 212 220 217 217 220 223 226 217 227 233 232 231 225 214 212 215 225 221 212 209 207 205 201 210 219 225 224
326 322 319 315 310 302 293 282 271 259 244 235 227 226 224 219 213 216 213 210 214 219 225 226 227 245 241 230 223 216 217 216 217 208 207 206 206 202 211 219 215 221 230
334 332 330 327 323 319 308 286 269 255 233 226 220 223 220 212 211 213 207 207 212 224 222 219 225 231 234 238 224 215 224 211 202 206 206 205 203 218 219 200 214 219 228
343 345 343 343 341 331 333 279 233 229 214 212 213 218 211 203 204 208 206 207 211 222 221 224 225 228 233 226 216 211 204 206 220 214 203 208 220 209 192 208 217 223 233
354 355 357 358 347 348 359 24 190 195 194 199 206 212 209 196 204 202 196 203 215 223 223 218 221 231 223 221 204 193 187 183 187 199 218 221 196 197 210 216 225 231 236
1 2 2 3 8 13 26 58 114 152 171 182 187 207 193 192 195 200 204 214 219 216 209 216 223 215 204 194 185 180 178 183 193 186 178 186 199 207 212 219 225 232 238
5 6 10 16 28 31 31 48 103 134 164 171 171 185 196 191 190 195 198 207 201 202 206 209 209 198 180 179 179 180 184 183 175 173 179 197 205 214 222 229 234 238 245
12 16 25 34 42 48 50 56 101 133 160 160 166 160 170 180 185 197 203 202 199 189 189 190 174 170 166 167 175 185 181 168 165 182 192 202 212 224 232 238 243 248 254
26 33 36 41 52 61 70 90 109 126 140 139 141 138 146 150 153 163 176 192 194 178 170 158 152 160 161 159 158 154 157 169 181 191 202 213 226 234 243 250 256 262 265
37 44 48 56 66 73 91 103 114 126 127 127 126 123 121 121 126 138 160 177 164 151 147 146 147 148 146 145 148 158 169 181 194 203 214 227 239 247 257 264 267 271 274
53 54 61 66 71 81 91 104 112 120 123 123 119 117 118 117 116 137 145 141 139 138 139 138 139 137 137 143 159 172 181 191 204 220 232 243 252 262 268 272 273 276 278
60 67 72 76 81 83 86 95 103 108 114 117 117 116 115 118 124 125 127 130 131 130 131 131 135 147 154 159 166 178 189 200 217 233 247 260 269 273 275 277 284 287 286
69 71 76 83 87 90 92 94 93 97 96 98 103 106 108 107 112 113 117 121 124 129 134 135 139 144 148 153 167 190 204 221 241 255 261 267 274 281 284 282 281 283 286
78 81 84 88 95 101 103 104 106 106 106 104 106 108 109 112 116 119 121 122 121 127 130 130 132 139 153 170 189 205 222 242 257 266 274 280 281 283 287 289 290 290 291
90 92 96 98 101 104 105 108 114 118 116 113 111 110 110 112 114 117 121 129 129 133 135 137 143 153 162 173 196 224 253 266 270 271 276 286 294 298 299 299 299 301 303
114 109 105 106 111 111 110 111 114 116 116 118 121 120 119 121 124 126 127 132 125 126 127 132 138 146 152 157 283 291 288 293 302 310 313 310 307 306 309 313 314 314 316
150 138 128 125 122 121 120 122 122 121 119 119 121 119 122 125 127 122 120 112 111 112 114 114 111 106 102 95 38 1 347 338 333 329 329 331 330 327 323 322 323 325 326
180 173 165 153 145 139 136 138 136 135 133 134 135 129 123 125 112 110 111 112 110 109 108 108 103 94 83 69 45 23 5 358 352 343 337 331 329 329 331 333 335 336 335
202 203 200 194 187 183 180 175 169 163 159 153 149 148 143 138 131 127 125 121 115 110 107 102 101 93 74 54 32 15 4 355 346 337 333 334 338 340 339 339 339 339 338
211 214 206 204 204 200 196 189 183 174 163 150 145 147 144 144 136 128 122 117 114 109 102 90 74 60 45 27 14 5 358 349 342 337 337 337 336 335 335 337 337 336 336
217 208 205 202 202 199 195 190 179 168 163 161 154 149 143 138 132 124 119 113 107 99 92 82 63 45 30 17 7 357 348 342 338 332 326 324 328 335 338 341 337 332 330
206 202 200 198 198 196 191 184 176 171 167 160 151 145 139 133 127 124 120 112 104 91 73 54 37 23 11 2 353 346 341 335 328 324 318 320 329 333 335 334 333 332 332
200 198 195 193 190 187 183 180 176 172 164 156 151 146 141 137 133 127 121 111 91 67 46 29 13 357 347 338 328 321 322 326 324 319 314 325 322 320 330 329 327 329 332